Temp
26 26 27 26 26 26 26 26 26 26 26 26 26 26 26 26 26 26 27 27 27 28 28 28 28 28 28 27 27 27 27 27 26 26 26 26 26 26 26 26 25 25 25 25 25 25 24 24 24 24 24 24 24 24 23 23 23 23 23 22 22 22 22 22 21 21 22 23 22 22 22 22 22 22 21 22 22 22 21 21 21 21 21 21 22
26 27 27 26 26 26 26 26 26 26 26 26 26 26 26 26 26 26 27 27 27 27 28 28 28 28 28 28 27 27 27 27 26 26 26 26 26 26 25 25 25 25 25 25 24 24 24 24 24 24 24 24 23 23 23 22 22 23 23 22 22 22 21 21 21 20 21 22 22 22 22 21 21 21 21 21 21 21 21 21 21 21 21 21 21
26 27 27 26 26 26 26 26 26 26 26 26 26 26 26 26 26 26 26 26 25 26 27 27 28 28 28 28 28 27 27 27 27 26 26 26 26 26 25 25 25 25 25 24 24 24 24 24 24 23 23 23 23 23 22 22 22 22 22 22 22 21 21 21 21 20 20 20 21 21 21 21 21 21 21 21 21 21 21 21 21 21 21 21 21
26 26 26 26 26 26 26 26 26 26 26 26 26 26 26 26 26 24 23 22 23 24 25 26 27 28 28 28 28 27 27 27 27 26 26 26 26 25 25 25 24 24 24 24 24 24 24 23 23 23 23 23 23 22 22 22 22 22 22 21 21 21 21 21 20 20 20 19 20 20 20 20 21 21 21 21 21 21 21 21 21 21 21 21 21
26 26 25 26 25 25 25 25 26 26 26 26 25 26 26 24 22 22 21 22 24 25 25 25 26 27 27 27 27 27 26 26 26 26 26 25 25 25 24 24 24 23 23 24 24 23 23 23 23 22 22 22 22 22 22 22 21 21 21 21 21 21 21 20 20 20 20 19 19 19 20 20 20 21 20 20 20 21 21 21 21 21 21 21 21
24 25 25 25 25 25 25 25 25 26 26 25 25 26 24 21 21 22 24 24 25 26 26 26 26 26 27 27 27 26 26 26 26 25 25 25 24 24 24 23 23 23 23 23 23 23 22 22 22 22 22 22 22 21 21 21 21 21 21 21 21 20 20 20 20 20 20 19 19 19 19 20 20 20 20 20 20 20 20 20 20 21 20 20 21
23 24 24 24 24 25 25 25 25 25 25 25 25 24 22 21 22 24 25 25 26 26 26 26 26 26 27 27 26 26 25 25 25 25 24 24 24 24 23 23 23 23 23 22 22 22 22 22 22 22 22 21 21 21 21 21 21 21 21 21 20 20 20 20 20 20 20 20 20 19 19 19 19 20 20 20 20 20 19 19 20 20 20 20 20
22 23 24 24 24 25 25 25 25 25 24 24 24 23 22 22 24 25 25 26 26 26 25 25 26 26 26 26 26 25 25 25 24 24 24 24 23 23 23 23 23 22 22 22 22 22 22 22 22 22 21 21 21 21 21 21 21 21 21 21 20 20 20 20 20 20 20 20 19 19 19 19 19 19 20 20 20 20 19 19 19 19 20 20 20
21 22 24 24 24 25 25 24 24 24 24 24 24 23 23 24 25 25 25 26 26 25 25 25 25 25 25 25 25 25 25 24 24 23 23 23 23 23 23 22 22 22 22 22 22 22 21 21 21 21 21 21 21 21 21 21 21 21 21 21 20 20 20 20 19 20 20 20 19 19 19 19 19 19 19 19 19 19 19 19 19 19 19 20 21
21 22 23 24 24 24 23 23 23 23 23 23 23 23 24 24 25 25 25 25 25 25 24 24 25 25 25 25 24 24 23 23 23 23 23 23 23 22 22 22 22 22 22 22 21 21 21 21 21 21 21 21 21 21 21 21 21 21 21 21 20 20 20 20 19 19 19 19 19 19 19 19 19 19 19 19 19 19 19 19 19 19 19 19 20
21 21 22 23 23 23 22 22 22 22 23 23 23 23 24 24 24 24 24 24 25 25 24 24 24 24 24 24 24 23 22 23 23 23 23 23 22 22 22 22 22 21 21 21 21 21 21 21 21 21 21 21 21 21 21 21 21 21 21 21 20 20 21 20 20 19 19 19 19 19 19 19 19 19 19 19 19 19 19 19 19 19 19 18 18
21 21 21 22 22 21 20 21 22 22 23 24 24 24 24 24 24 24 24 24 24 24 24 24 23 23 24 24 23 23 23 23 23 23 23 22 22 22 22 22 22 21 21 21 21 21 21 21 21 21 21 21 21 22 22 22 22 21 21 21 20 21 21 20 20 20 20 19 19 19 19 19 19 19 19 19 18 18 18 19 19 18 18 18 18
21 21 21 21 21 21 21 22 23 24 23 23 23 23 23 24 24 24 24 24 24 23 23 23 23 23 23 23 23 23 23 22 22 22 22 22 22 22 22 22 22 21 21 21 21 21 21 21 21 21 21 21 21 21 22 21 21 21 21 20 21 21 21 20 20 20 19 19 19 19 19 19 19 19 19 18 18 18 18 18 18 18 18 18 18
22 22 21 21 20 22 23 24 24 25 24 22 23 23 23 24 24 24 23 23 23 23 22 23 23 23 23 23 23 22 22 22 22 22 22 21 21 22 21 22 21 21 21 21 21 21 21 21 21 21 21 21 21 21 21 21 21 20 20 20 21 21 20 20 19 19 19 19 19 19 19 19 19 19 19 18 18 18 18 18 18 18 18 19 19
22 22 21 20 21 23 25 24 24 25 23 22 22 23 23 23 23 23 22 22 22 23 23 23 23 22 22 22 22 22 22 22 21 22 22 21 21 21 22 21 21 21 21 21 21 21 21 21 21 21 21 21 21 21 21 20 20 20 20 20 20 20 19 19 19 19 19 19 19 19 19 19 19 19 19 18 18 18 18 18 18 18 18 19 19
22 22 21 21 22 24 25 24 24 24 23 22 22 22 22 23 23 22 22 22 22 23 23 22 22 21 21 22 22 22 21 21 21 21 21 21 21 22 22 21 21 21 21 21 21 21 21 21 21 21 21 21 21 20 20 20 19 19 19 19 19 19 19 19 19 19 19 19 19 19 19 19 19 18 18 18 18 18 18 18 18 18 18 18 18
22 22 21 21 21 22 23 24 24 24 23 21 21 21 22 23 23 22 22 22 22 22 22 22 21 21 21 21 22 22 21 21 21 21 21 21 22 22 22 21 21 21 20 20 20 20 20 21 21 21 21 20 20 20 19 19 19 19 19 19 19 19 18 18 18 19 19 19 19 18 18 18 18 18 18 18 18 18 18 18 18 18 17 17 17
22 22 21 20 21 21 22 23 24 24 23 22 21 21 22 22 23 22 22 22 21 21 21 21 21 21 21 21 21 21 21 21 21 21 21 22 22 22 22 21 20 20 20 20 20 20 20 20 20 20 20 19 19 19 19 19 19 19 18 18 18 18 18 18 18 18 18 18 18 18 18 18 18 17 17 17 17 17 17 17 17 17 17 16 16
21 21 20 20 20 21 21 22 23 23 23 21 20 21 21 22 22 22 22 21 21 21 21 21 21 21 21 21 21 21 21 21 21 21 22 22 22 22 22 21 20 20 20 20 20 20 20 19 19 19 19 19 19 19 19 19 18 18 18 18 18 17 17 17 17 17 18 18 17 17 17 17 17 17 17 17 17 17 17 17 17 17 17 16 16
20 20 20 20 20 21 21 22 22 22 21 21 20 20 20 21 21 21 21 21 20 20 20 20 20 20 20 20 20 20 21 21 21 21 22 22 22 22 22 21 20 20 20 20 19 19 19 19 19 18 18 18 18 18 18 18 18 18 18 18 17 17 17 17 17 17 17 17 17 17 17 17 17 17 17 17 17 17 17 17 17 17 17 16 17
21 21 21 21 21 22 22 22 21 20 20 21 21 20 20 20 20 20 20 20 20 20 19 19 19 19 19 20 20 20 21 21 21 21 22 22 22 22 22 21 20 20 20 19 19 19 19 18 18 18 18 18 18 18 18 18 18 18 17 17 17 16 17 17 17 17 17 16 16 16 16 16 16 17 17 17 17 17 17 17 17 17 17 16 16
21 21 21 21 21 22 21 21 21 20 21 22 21 20 20 20 20 20 19 19 19 19 19 19 19 19 19 20 20 20 21 21 21 21 22 22 22 22 22 21 20 20 19 19 19 18 18 18 18 18 18 18 18 18 18 17 17 17 17 17 16 17 17 16 16 16 16 16 16 16 16 16 16 16 16 16 16 17 17 17 17 17 17 17 16
20 21 21 21 21 21 21 22 22 21 22 22 21 20 20 20 20 19 19 18 18 19 19 18 19 19 19 19 20 20 20 21 21 21 22 21 21 21 21 20 20 20 20 19 18 18 18 18 18 18 18 18 18 18 17 17 17 17 16 16 16 16 16 16 16 15 15 15 15 15 15 15 15 15 15 15 16 16 16 17 17 17 17 17 16
20 20 20 21 21 21 21 22 22 21 22 22 20 20 20 20 20 19 18 18 18 18 18 18 18 18 19 19 20 20 20 20 21 21 21 21 20 20 20 20 19 19 19 19 18 18 18 18 18 18 18 18 17 17 17 16 16 16 16 16 16 16 16 15 15 15 15 15 14 14 14 14 15 15 15 15 15 16 16 16 16 16 16 16 16
19 19 20 20 20 20 20 21 21 21 21 21 20 20 20 20 19 18 18 18 18 18 18 18 18 18 19 19 19 19 20 20 19 19 19 20 19 19 19 19 19 19 19 18 18 18 18 18 18 18 18 17 17 17 16 16 16 16 16 15 15 15 15 15 14 14 14 14 14 14 14 14 14 14 14 14 15 15 15 15 15 16 16 16 16
19 19 19 19 20 20 21 20 20 20 20 20 20 20 20 19 18 18 18 18 18 18 18 18 18 18 18 19 19 19 19 19 19 19 19 19 19 19 19 19 19 19 18 18 18 18 18 18 17 17 17 17 16 16 16 15 15 15 15 15 15 15 14 14 14 14 14 13 13 14 14 14 14 14 14 14 14 14 14 14 14 14 14 15 15
19 19 19 19 20 21 21 20 19 20 20 20 20 20 19 18 18 18 18 18 19 19 18 18 18 18 18 18 18 18 18 18 18 18 18 18 19 19 19 18 18 18 18 18 18 18 18 17 17 17 17 17 16 16 15 15 15 15 15 15 15 14 14 14 14 14 13 13 13 13 13 14 14 14 14 13 13 13 13 13 13 13 13 13 13
19 20 19 19 19 20 20 19 19 19 20 19 19 19 18 18 18 18 18 19 19 19 18 18 18 18 18 17 17 18 18 18 18 18 18 18 18 18 18 18 18 19 18 18 18 18 17 17 17 17 17 16 16 15 15 15 15 14 14 14 14 14 14 14 14 14 13 13 13 13 13 13 13 13 13 13 13 12 13 13 13 13 13 13 12
19 19 19 19 19 19 19 19 19 19 19 19 19 18 18 18 19 19 19 19 20 19 19 19 19 18 18 18 18 18 18 18 18 18 18 18 18 18 19 18 18 18 18 18 18 17 17 17 17 17 16 16 15 15 15 15 14 14 14 14 14 14 14 14 14 13 13 13 13 13 13 13 13 13 13 12 12 12 12 12 12 12 12 12 11
19 19 18 18 18 18 18 18 18 19 19 19 18 18 18 18 19 19 19 19 19 20 20 20 20 19 19 18 19 19 18 18 18 18 18 18 18 19 19 18 18 18 18 18 18 17 17 16 16 16 16 16 15 15 15 15 15 14 14 14 14 14 14 14 13 13 13 13 13 13 13 13 13 12 12 12 12 12 12 12 12 11 11 11 11
18 18 18 18 18 18 18 17 18 18 18 18 18 17 17 17 18 19 19 19 20 20 20 20 20 20 20 19 18 18 18 18 18 18 18 18 18 18 18 18 18 18 18 18 18 17 16 16 16 16 16 15 15 15 15 15 15 14 14 14 14 14 14 14 14 13 13 13 13 13 13 13 12 12 12 12 12 12 12 11 11 11 11 11 11
18 18 17 17 17 17 17 17 17 18 17 17 18 18 17 17 17 18 19 20 20 20 20 20 20 20 20 19 19 18 18 18 17 17 18 18 18 18 18 18 18 18 18 18 17 16 16 16 15 15 15 15 15 15 15 15 15 14 14 14 14 14 14 13 13 13 13 13 13 13 12 12 12 12 12 12 12 11 11 11 11 11 11 11 11
18 18 17 17 17 17 17 17 17 18 18 18 18 18 18 17 16 15 16 18 19 19 19 19 19 19 19 19 19 18 18 17 17 17 17 18 18 18 18 18 18 18 18 17 16 16 16 15 15 15 15 15 15 15 15 15 15 15 14 14 14 14 14 13 13 13 13 13 13 12 12 12 12 12 12 11 11 11 11 11 11 11 11 11 11
18 18 18 17 17 16 16 16 17 17 17 18 18 18 18 18 17 16 15 16 17 17 18 18 19 18 18 18 18 18 18 17 17 17 17 17 17 17 17 17 17 17 17 17 16 16 16 15 15 15 15 15 15 15 15 15 15 15 14 14 14 14 13 13 13 13 13 13 12 12 12 12 12 12 11 11 11 11 11 11 11 11 11 11 10
18 18 17 17 17 17 17 17 17 17 17 17 18 18 18 18 17 17 16 16 16 16 16 17 17 18 18 18 18 17 17 17 17 17 17 17 17 17 17 17 16 16 16 16 16 16 15 15 15 15 15 15 15 15 15 15 14 14 14 14 14 14 13 13 13 13 13 12 12 12 12 12 12 12 12 12 11 11 11 11 11 11 11 10 10
18 18 17 17 17 17 17 17 17 17 17 17 17 17 17 17 17 17 17 16 16 16 16 16 17 17 17 17 17 17 17 17 17 17 17 17 17 17 17 16 16 16 16 16 16 16 15 15 15 15 15 15 15 15 15 14 14 14 14 14 14 13 13 13 13 13 13 12 12 12 12 12 12 12 12 12 12 11 11 11 11 11 11 11 10
18 18 18 17 17 17 17 17 17 17 17 17 17 17 17 17 17 17 16 16 16 16 16 16 17 17 17 17 17 17 17 17 17 17 17 17 17 17 16 16 16 16 16 16 16 15 15 15 15 15 15 15 15 14 14 14 14 14 14 14 14 13 13 13 13 13 13 12 12 12 12 12 12 12 12 12 11 11 11 11 11 11 11 11 10
18 18 18 17 17 17 17 17 17 17 17 17 17 17 16 16 17 17 17 16 16 16 16 16 17 17 17 17 17 17 17 17 17 17 17 17 17 16 16 16 16 16 16 16 16 15 15 15 15 15 15 14 14 14 14 14 14 14 14 14 13 13 13 13 13 13 13 12 12 12 12 12 12 12 11 11 11 11 11 11 11 11 11 11 10
19 18 18 18 18 18 17 17 17 17 17 17 16 16 16 16 17 17 16 16 16 16 16 16 17 17 17 17 17 17 17 17 17 17 17 17 17 16 16 16 16 16 16 16 16 15 15 15 15 15 15 14 14 14 14 14 14 14 14 14 13 13 13 13 13 12 12 12 12 12 12 12 12 12 12 12 11 11 11 11 11 11 11 11 11
19 19 18 18 18 18 18 17 17 17 17 16 16 16 16 16 17 16 16 16 16 16 16 16 17 17 17 17 17 17 17 17 17 17 17 16 16 16 16 16 16 16 16 16 16 15 15 15 15 15 15 15 14 14 14 14 14 14 14 14 13 13 13 12 12 12 12 12 12 11 11 11 11 11 11 11 11 11 11 11 11 11 11 10 10
19 19 18 18 18 18 17 17 17 17 17 16 16 16 16 16 16 16 16 16 16 16 17 17 17 17 17 17 17 17 17 17 17 17 17 17 16 16 16 16 16 16 16 16 16 15 15 15 15 15 15 15 15 15 14 14 14 14 13 13 13 13 12 12 11 11 11 11 11 11 10 10 10 10 10 10 10 10 10 10 10 10 10 10 10
19 18 18 18 18 18 17 17 17 17 16 16 16 16 16 16 16 16 16 16 16 16 17 17 17 17 17 17 17 17 17 17 17 17 17 17 16 16 16 16 16 16 16 16 16 15 15 15 15 15 15 15 15 14 14 14 14 13 13 13 12 12 11 11 10 10 10 10 10 10 10 10 9 9 9 9 9 9 9 9 9 9 9 9 9
19 18 18 18 18 17 17 17 17 16 16 16 16 16 16 16 16 16 16 16 16 17 17 17 17 17 17 17 17 17 17 17 17 17 17 17 16 16 16 16 16 16 16 16 16 15 15 15 15 15 15 14 14 14 14 13 13 13 12 12 11 11 10 10 9 9 9 9 9 9 9 9 9 9 9 8 8 8 8 8 8 8 8 8 8
18 18 18 18 17 17 17 16 16 16 16 16 16 16 16 16 16 16 16 16 16 17 17 17 17 17 17 17 17 17 17 17 17 17 17 16 16 16 16 16 16 16 16 16 16 16 16 16 15 15 14 14 14 14 13 13 13 12 11 11 10 10 9 9 8 8 8 8 8 8 8 8 8 8 7 7 6 6 6 6 6 7 7 7 7
17 17 17 17 17 16 16 16 16 16 16 16 16 16 16 16 16 17 17 16 17 17 17 17 17 17 17 17 17 17 17 17 17 16 16 16 16 16 16 16 16 16 16 16 16 16 16 16 15 15 14 14 13 13 13 12 11 11 10 10 10 9 8 8 8 7 7 7 7 7 7 7 6 6 5 5 5 5 5 5 5 5 5 6 6
17 17 17 17 16 16 16 16 16 16 16 16 16 16 16 16 17 17 16 16 17 17 17 17 17 17 17 17 17 17 17 17 17 16 16 16 16 16 16 16 16 16 16 16 16 16 16 15 15 14 14 13 13 12 12 11 10 10 9 9 9 8 8 8 7 7 7 6 6 6 5 5 5 5 4 4 4 4 4 4 4 5 5 5 5
17 16 16 16 16 16 16 16 16 16 16 16 16 16 16 17 17 17 17 17 17 17 17 17 17 18 17 17 17 17 17 17 17 17 17 17 17 16 16 16 16 16 16 16 16 16 15 15 14 14 14 13 12 11 11 10 9 9 9 9 8 8 7 7 6 6 6 5 5 5 5 4 4 4 4 4 4 4 4 4 4 4 5 5 5
16 15 15 15 15 15 15 16 16 15 15 16 16 16 17 17 17 17 17 17 17 17 17 18 17 17 17 17 17 17 17 17 17 17 17 17 16 16 16 16 16 16 16 16 16 16 15 15 14 13 13 12 11 11 10 9 9 9 9 8 7 7 6 6 5 5 5 5 5 4 4 3 4 4 4 4 4 4 4 4 4 4 4 5 5
15 14 14 14 14 15 15 15 15 15 15 15 15 16 16 16 17 17 17 17 17 18 18 18 18 17 17 17 17 17 17 17 17 17 17 16 16 16 16 16 16 15 15 15 15 15 15 14 13 13 12 11 11 10 9 9 9 8 7 7 6 5 5 5 5 5 5 4 4 3 3 3 3 4 4 4 4 4 4 4 4 4 4 4 4
14 14 14 14 14 15 15 15 15 15 15 15 15 15 15 16 16 16 17 17 18 18 18 18 18 17 17 17 17 17 17 17 17 17 16 16 16 16 16 15 15 15 15 15 14 14 14 13 12 12 11 10 10 9 9 8 8 7 6 6 5 5 5 4 4 4 4 3 3 3 3 3 3 3 3 4 4 4 4 4 4 4 4 4 4
15 15 15 14 14 15 15 15 15 15 15 15 15 15 15 15 16 16 17 17 18 18 18 18 18 17 17 17 17 17 17 17 17 16 16 16 16 15 15 15 15 15 14 14 14 13 12 12 11 10 10 9 9 9 8 8 7 6 6 5 5 5 4 4 4 4 3 3 3 3 3 3 3 3 3 3 3 4 4 4 4 4 4 4 4
Height
768 770 770 772 774 776 777 779 781 783 785 787 789 790 792 794 795 797 798 798 799 799 800 801 802 803 804 805 807 808 808 809 810 811 811 812 812 812 812 812 813 813 813 813 813 813 813 813 814 813 813 814 813 813 813 813 812 811 811 811 811 812 812 812 812 808 805 805 806 805 804 803 802 801 800 798 797 796 795 795 795 794 793 792 792
764 766 767 768 771 772 774 776 778 780 782 784 786 787 790 792 793 795 795 796 797 798 799 799 800 801 802 803 804 805 806 807 809 810 810 811 811 811 812 811 812 811 811 812 811 812 812 812 812 812 812 812 812 812 812 811 811 810 809 810 810 810 810 810 810 808 805 803 804 804 803 802 801 800 799 797 795 794 793 793 793 792 792 791 790
760 762 764 765 767 769 771 773 776 778 780 781 783 786 788 790 791 793 794 795 796 797 798 799 799 799 799 800 801 803 805 806 807 808 809 809 810 810 811 810 810 810 810 810 810 810 811 811 811 810 810 810 810 810 810 810 810 809 808 808 808 808 808 808 808 807 805 803 803 803 802 801 800 799 798 796 795 794 792 792 791 790 790 789 788
758 760 761 762 764 766 768 771 773 776 777 779 782 784 787 789 790 790 791 795 797 798 800 801 800 798 797 798 799 801 803 804 805 806 807 808 809 809 809 809 809 809 809 809 809 809 809 809 809 809 809 809 809 809 809 809 809 808 807 807 807 806 806 806 806 806 805 803 802 802 801 801 799 798 797 795 794 793 792 791 790 789 788 788 787
755 757 759 760 762 764 766 769 771 773 775 778 780 783 786 787 789 790 792 797 799 797 799 801 800 798 797 797 798 800 801 802 803 804 805 806 807 807 808 808 808 809 809 808 808 808 808 808 808 808 807 807 807 807 807 808 807 807 807 806 806 806 805 805 804 804 803 802 801 800 800 800 798 797 796 795 793 792 791 790 790 789 787 787 786
755 755 757 759 760 762 764 767 769 771 774 777 779 783 784 785 788 792 793 794 794 791 793 797 798 797 795 795 796 798 799 800 801 802 804 805 805 806 806 807 808 808 808 807 807 807 807 807 807 807 807 806 806 806 806 807 806 806 806 805 805 805 804 803 803 802 802 801 800 800 799 798 797 796 795 794 792 791 790 789 788 788 787 786 785
757 754 754 756 758 760 762 764 767 770 772 775 779 781 782 783 787 790 789 787 787 787 790 793 795 794 793 793 794 796 797 799 800 802 804 804 804 805 805 806 806 807 806 806 806 806 806 806 806 806 806 806 805 805 805 805 805 805 805 804 804 803 803 802 802 801 800 800 800 799 799 798 797 796 794 793 792 791 790 788 787 786 786 785 784
756 753 751 753 755 756 759 762 765 768 771 774 777 779 780 783 785 785 785 784 785 786 788 791 792 792 792 792 793 795 796 798 800 802 803 803 804 804 805 805 805 805 805 805 805 805 806 806 806 805 805 805 805 805 805 805 804 804 804 803 803 802 802 801 801 800 800 800 800 799 799 798 797 795 794 793 792 790 790 789 787 786 785 784 783
754 752 749 749 752 753 757 760 763 766 769 772 775 776 777 780 781 781 782 783 784 786 786 788 789 790 791 792 793 794 795 796 798 800 801 801 802 803 804 804 804 804 804 804 805 805 805 805 805 805 805 804 805 805 804 804 804 803 803 802 802 801 801 800 800 799 799 799 799 799 798 798 796 795 794 793 792 791 790 789 788 786 785 784 782
754 754 748 746 749 751 754 758 762 765 768 770 772 773 774 776 777 778 780 782 783 784 785 786 787 788 790 791 792 794 796 797 797 798 799 800 801 802 803 803 804 804 804 804 805 805 805 805 805 805 805 805 805 805 804 804 803 803 802 802 801 801 800 800 799 799 799 799 799 799 798 797 796 795 794 793 792 791 790 789 787 786 785 783 781
754 757 752 747 748 751 754 759 763 766 768 768 769 769 771 774 776 778 780 782 783 783 784 785 786 788 789 790 791 793 795 796 795 796 798 799 800 801 802 803 804 804 804 804 805 805 805 805 805 805 806 806 806 805 804 804 803 802 802 801 801 801 800 799 799 798 799 799 799 799 798 797 796 795 794 793 792 791 790 789 788 786 785 784 782
753 757 756 754 753 753 757 762 766 768 768 768 767 768 770 773 775 777 778 779 781 782 784 785 786 787 789 789 791 792 793 794 795 796 797 798 800 801 802 803 803 804 804 804 804 804 804 805 806 806 806 806 806 805 804 803 802 801 801 800 800 800 799 799 799 799 799 799 798 798 798 797 796 795 794 793 791 791 790 789 788 787 786 785 784
749 755 758 758 756 755 758 760 762 763 764 766 768 769 770 772 773 775 776 777 779 780 783 784 785 787 788 789 790 791 793 794 795 797 798 799 800 801 802 802 803 803 804 804 804 804 805 805 806 806 806 806 805 804 803 802 801 800 800 800 800 799 799 799 799 799 800 799 799 798 798 797 796 795 794 793 791 790 789 789 788 787 786 785 784
742 749 755 758 757 757 756 755 754 756 760 766 769 768 769 770 771 773 774 776 778 780 781 782 784 786 787 789 790 791 793 795 796 797 798 799 800 801 802 802 803 803 803 803 804 804 805 806 806 806 806 805 804 803 802 801 801 800 800 800 800 799 799 799 800 800 800 800 800 799 798 797 797 796 795 793 791 790 789 788 788 787 786 785 784
740 743 749 753 755 754 753 751 751 754 760 765 766 766 767 768 770 772 773 775 777 778 779 781 783 785 787 788 790 791 793 795 796 797 798 800 801 802 802 803 803 803 804 804 805 805 806 807 807 806 806 805 804 803 802 801 801 801 801 800 800 800 800 800 800 801 801 801 800 799 798 798 797 796 795 793 792 791 790 789 788 787 786 784 783
741 742 744 748 751 751 750 750 752 755 759 762 763 765 767 767 769 771 772 773 775 776 778 780 782 784 786 788 789 791 793 794 796 797 798 799 801 801 802 803 803 804 805 805 806 807 807 807 807 806 806 805 804 803 803 802 802 802 802 802 802 801 801 801 801 801 801 800 800 799 799 798 797 796 795 794 792 791 790 789 788 787 785 784 783
741 743 745 747 750 751 751 752 753 756 759 762 763 765 766 767 768 770 771 772 773 774 776 778 780 782 785 787 788 790 792 793 795 796 797 798 800 801 802 803 804 805 806 807 807 808 808 808 807 807 806 806 805 805 804 804 803 803 803 803 803 802 802 802 802 802 801 801 800 800 799 798 798 796 795 794 792 791 789 788 788 787 786 784 783
743 745 748 750 751 752 753 753 753 756 759 762 763 764 765 767 768 768 770 770 771 773 775 777 779 781 783 786 787 789 791 792 794 795 796 797 798 800 801 802 804 805 806 807 808 808 808 808 808 808 807 807 807 806 805 805 804 804 804 804 804 804 804 804 804 803 802 801 800 800 799 798 798 797 795 794 793 791 790 789 788 787 786 785 784
745 747 749 751 752 752 752 752 752 754 758 762 765 765 765 766 767 768 768 769 770 772 774 776 779 781 783 785 787 789 790 792 793 795 796 797 798 799 800 801 803 805 806 807 808 808 808 809 809 809 809 808 808 807 807 806 805 806 806 806 806 806 807 806 805 804 803 802 801 800 799 799 798 797 796 795 793 792 791 790 789 787 786 786 785
744 745 746 747 748 749 749 749 751 753 756 760 764 767 766 765 765 766 767 768 769 772 776 779 781 782 783 785 787 789 791 792 794 795 796 797 798 798 800 801 802 804 805 806 807 808 809 809 810 810 810 810 809 809 808 807 807 807 807 807 807 808 809 808 807 806 804 803 802 801 800 799 799 798 797 796 794 793 792 791 790 788 787 786 786
740 740 740 740 742 743 744 746 749 753 755 755 758 763 766 767 766 766 766 768 770 774 778 781 784 784 784 786 788 790 791 792 793 795 796 797 798 799 800 801 802 804 805 807 808 809 809 810 811 811 811 811 811 810 809 809 808 808 808 809 809 810 809 808 808 807 806 804 803 802 801 800 800 799 798 796 795 794 793 792 790 789 788 787 786
736 736 736 737 739 740 742 744 746 749 751 750 752 757 764 768 769 769 769 770 773 777 779 780 784 787 787 788 789 790 791 793 793 794 795 796 797 799 799 801 802 803 805 807 808 809 810 811 811 812 812 812 811 811 810 809 809 809 810 810 810 810 809 809 808 807 806 805 804 803 802 801 800 799 798 797 796 795 793 792 791 789 789 788 787
735 734 735 736 738 739 740 740 741 743 744 745 749 755 762 767 769 770 772 774 776 779 780 781 785 788 788 789 789 790 791 792 793 794 795 796 797 798 799 801 803 804 805 807 808 809 810 811 812 812 813 812 812 811 811 810 810 811 811 811 811 810 810 809 809 808 807 806 805 804 804 803 802 801 799 798 797 796 794 793 791 790 789 788 787
735 734 734 735 737 738 739 738 738 739 740 744 749 756 761 764 766 769 772 773 775 778 780 782 784 786 787 788 789 790 791 792 793 794 795 796 797 798 800 801 803 804 805 807 808 810 810 811 812 812 813 813 812 812 812 812 812 812 812 812 811 811 810 810 810 809 809 808 807 806 805 804 803 802 801 800 798 797 795 793 792 791 790 789 788
735 734 734 735 736 737 738 738 738 737 739 744 750 755 758 760 764 768 769 769 771 774 778 781 782 784 786 786 787 789 790 791 793 794 795 796 798 799 800 802 803 804 806 807 809 810 810 811 812 813 814 814 813 813 813 814 814 814 814 813 813 812 812 811 811 810 810 810 809 808 807 806 806 804 803 801 799 797 795 794 792 791 790 789 788
734 734 735 735 736 735 735 735 736 737 740 744 749 753 756 758 762 766 768 768 769 770 774 779 781 783 784 785 787 789 790 791 793 794 796 797 798 799 801 802 803 805 806 807 809 810 811 812 813 814 814 814 814 814 815 815 815 815 815 814 814 814 813 813 812 812 812 812 811 810 809 808 807 806 804 802 800 799 797 796 794 793 791 790 788
733 734 735 735 734 732 732 733 735 736 739 743 748 752 756 759 763 765 767 769 770 771 774 778 780 782 784 785 787 788 790 792 793 795 796 797 798 799 800 801 803 804 805 807 809 810 811 813 814 814 814 815 816 816 816 816 816 816 816 816 816 816 815 815 814 814 814 813 812 812 811 810 808 806 805 803 802 801 799 798 796 795 793 791 790
733 734 735 735 734 732 731 733 734 735 739 743 748 752 757 760 763 765 766 768 769 771 775 777 779 781 782 784 786 788 790 792 793 795 796 797 798 800 800 801 802 804 805 807 808 810 811 813 814 815 816 816 817 817 817 817 817 817 818 818 818 818 817 817 816 816 815 815 814 813 812 810 809 808 806 805 804 802 801 799 798 796 795 792 791
734 735 735 736 737 736 735 734 734 735 738 743 748 752 757 760 763 764 767 769 770 772 775 777 779 780 780 782 784 786 788 791 793 794 796 797 799 800 800 801 802 803 804 806 807 809 811 813 815 817 817 817 818 818 818 818 818 819 819 820 820 819 819 818 818 817 816 816 815 814 813 811 810 809 808 806 805 804 802 801 799 797 796 794 793
734 735 736 736 737 738 739 738 737 737 739 743 747 752 756 760 762 765 767 770 772 774 775 776 778 779 780 782 784 785 787 790 792 794 796 797 798 799 800 801 802 803 805 806 808 810 812 814 816 817 818 818 819 819 819 820 820 820 821 821 821 820 819 819 818 817 817 817 816 815 814 813 812 810 809 808 806 805 803 802 800 799 797 796 795
734 735 736 737 737 739 740 741 741 740 741 744 747 751 756 760 763 766 769 771 773 775 776 778 779 780 780 782 785 787 789 791 793 795 796 796 797 798 799 801 802 804 805 807 809 811 813 815 817 818 818 819 819 819 820 821 821 822 822 822 821 820 819 819 818 818 818 818 817 816 815 813 812 811 809 808 807 805 804 803 801 800 799 798 797
735 736 737 738 738 739 740 741 742 743 745 747 749 752 755 759 764 768 770 772 773 775 777 779 781 783 783 783 785 788 791 793 795 795 796 796 797 798 800 801 803 805 807 808 810 813 814 816 818 819 819 819 820 821 822 822 823 823 822 822 821 820 820 820 819 819 819 818 817 817 815 814 813 811 810 809 807 806 804 803 801 800 799 798 797
737 737 738 738 739 739 740 741 742 743 745 747 749 752 755 758 762 768 771 773 775 777 779 781 782 784 786 786 787 789 791 793 795 796 797 798 799 800 802 804 805 807 808 809 811 814 815 817 818 819 819 820 821 822 823 823 823 823 822 821 821 820 820 820 820 819 819 818 817 816 815 814 813 811 810 809 807 806 804 803 802 801 799 798 797
737 738 738 737 738 739 740 742 743 744 746 747 749 752 755 758 761 765 770 774 777 781 783 784 785 786 787 788 789 790 792 794 796 797 799 800 802 803 804 806 807 808 809 810 812 815 816 818 819 819 820 821 822 823 823 823 823 823 822 821 821 820 820 820 820 819 819 818 817 816 814 813 812 811 809 808 806 805 804 803 802 801 799 798 797
738 739 739 737 736 737 740 742 744 745 747 749 750 752 756 759 762 765 769 773 777 781 785 787 788 789 789 790 791 793 794 796 798 800 801 803 804 805 805 807 809 810 811 813 814 816 817 818 819 820 821 822 822 823 823 823 823 822 822 821 821 821 820 820 820 819 818 817 816 815 814 813 811 810 808 807 805 805 803 802 801 800 799 798 796
739 739 739 738 736 736 738 741 744 746 748 750 752 754 757 760 763 767 770 774 777 781 785 787 789 791 792 793 794 795 797 798 800 802 804 805 806 806 806 808 810 812 813 815 816 817 818 819 819 820 821 822 822 823 823 823 823 822 821 821 821 821 820 820 819 818 817 816 815 814 813 811 810 809 807 806 805 804 803 801 801 799 798 797 795
741 741 741 741 740 739 741 743 746 747 749 752 754 757 759 762 765 768 772 775 778 781 785 787 789 791 793 795 797 798 799 801 802 804 806 807 807 808 808 809 811 813 814 816 816 817 818 819 820 821 821 822 822 823 822 822 822 822 821 821 821 820 820 819 818 817 816 815 814 813 811 810 809 807 806 805 804 802 801 800 799 797 796 795 793
743 743 744 744 743 743 745 747 748 751 753 755 757 760 761 764 766 769 773 776 779 782 785 788 790 792 794 796 798 799 800 802 804 806 807 808 809 810 810 811 812 814 815 816 817 817 818 820 820 821 821 822 822 822 822 822 822 821 821 821 820 820 819 818 817 816 815 814 813 811 810 809 807 806 804 803 802 800 799 798 797 795 794 793 791
744 744 744 743 742 743 745 747 750 753 755 757 760 762 763 764 767 770 774 777 780 783 786 789 791 793 794 796 798 800 801 803 805 806 808 809 811 811 811 812 813 814 815 816 817 818 819 820 820 821 821 821 822 822 822 821 821 821 820 820 819 819 818 817 816 815 814 813 811 810 809 807 806 805 803 801 800 799 797 796 794 793 791 790 789
739 738 739 740 742 744 746 749 752 754 755 757 761 765 765 765 767 770 774 777 781 783 786 789 792 794 796 798 799 800 802 804 806 807 809 810 811 812 812 813 813 814 815 816 817 818 819 819 820 820 821 821 821 821 821 820 820 820 820 819 818 817 816 815 814 813 812 811 810 809 807 806 804 803 802 800 798 797 795 794 792 791 789 788 786
733 734 736 739 743 745 748 750 753 754 756 759 763 766 767 767 768 772 775 778 781 784 786 789 792 794 797 799 800 802 803 804 806 808 810 811 812 812 813 813 814 815 815 816 817 818 818 819 820 820 820 820 820 820 820 819 819 819 818 817 817 816 815 814 813 811 810 809 808 807 805 804 802 801 800 798 796 795 793 792 790 789 788 786 784
732 735 738 741 744 746 748 751 753 754 757 761 765 769 770 769 770 773 777 780 783 786 788 791 794 796 798 800 802 803 804 806 807 809 810 811 812 813 813 814 814 815 816 816 817 818 818 819 819 819 819 819 819 819 819 819 818 817 817 816 815 814 813 812 811 810 809 808 806 805 804 802 801 799 798 796 795 793 791 790 788 787 785 784 782
732 734 737 740 743 745 748 750 752 755 759 764 767 771 773 773 773 775 778 781 784 787 789 792 795 796 799 801 803 804 806 807 808 810 811 812 813 813 814 814 815 815 816 817 817 818 818 818 818 819 819 819 819 818 818 817 817 816 815 814 813 812 811 810 809 808 807 806 805 803 802 800 799 797 796 794 792 791 789 788 786 785 784 782 781
731 733 736 740 743 746 749 751 752 756 760 765 768 772 774 775 776 778 780 783 786 789 791 794 795 797 799 801 803 805 806 807 808 810 811 812 813 813 814 814 815 815 816 817 817 818 818 817 818 818 818 818 818 817 816 816 815 815 814 813 812 811 810 809 808 807 805 804 803 801 800 798 797 795 793 791 790 788 787 786 785 783 782 781 779
731 733 736 739 743 746 749 752 755 758 762 766 769 773 776 777 777 780 783 785 788 791 793 795 797 799 801 802 804 805 806 807 809 810 811 812 813 813 814 814 815 815 816 817 817 817 817 817 817 817 817 816 816 815 815 814 814 813 812 811 810 809 808 808 807 806 804 803 801 799 798 796 794 792 791 789 788 787 786 785 784 782 781 780 778
733 735 736 738 741 744 748 752 756 760 764 767 770 774 777 778 780 782 785 787 790 793 795 796 798 800 802 803 805 806 807 808 809 810 811 812 812 813 814 814 815 815 816 816 817 817 817 817 817 816 815 815 815 814 814 813 813 812 811 810 809 808 807 807 806 804 803 801 799 797 795 793 792 791 790 788 788 787 785 784 783 781 780 779 778
735 736 737 738 741 744 748 753 758 762 764 767 770 774 777 780 782 785 788 790 792 794 796 797 799 801 802 803 805 806 807 808 809 810 811 811 812 813 814 814 815 815 816 816 816 816 816 816 815 815 815 814 814 814 813 812 811 811 810 809 808 807 806 806 804 803 801 799 797 795 793 792 791 790 789 788 787 786 785 783 782 781 779 778 777
737 739 740 741 743 746 750 755 761 765 767 769 772 776 779 782 785 788 790 792 794 795 796 798 799 801 802 804 805 806 807 808 809 809 810 811 812 813 814 814 815 815 815 815 815 815 814 814 814 814 814 814 814 813 812 811 810 809 808 807 807 806 805 804 802 800 798 797 795 793 792 791 791 790 789 787 787 785 784 783 782 780 779 778 777
740 743 744 745 747 750 754 758 763 768 771 773 777 780 783 786 787 789 792 794 795 796 797 798 800 801 802 804 805 806 807 808 808 809 810 811 812 813 813 813 814 814 814 814 814 814 814 814 814 813 813 813 813 812 811 810 809 808 807 806 805 804 803 802 800 798 796 795 794 793 792 791 790 789 788 787 786 785 784 783 782 780 779 778 777
744 747 749 751 752 755 759 763 766 771 776 779 781 784 787 789 791 792 794 795 797 797 798 799 800 802 803 804 805 806 807 807 808 809 810 811 812 812 812 813 813 813 813 813 813 813 813 813 813 813 813 812 811 810 809 808 807 806 805 804 804 803 801 800 798 796 795 794 793 792 791 790 789 789 788 787 786 784 783 782 781 780 779 778 776
749 752 757 759 761 763 766 769 772 776 781 784 785 787 790 793 794 795 796 797 798 799 800 800 801 802 803 804 805 806 807 807 808 809 810 811 811 811 812 812 812 812 813 813 813 813 813 812 812 812 811 810 809 808 807 806 805 805 804 803 802 801 799 798 797 795 794 793 793 792 791 790 789 788 787 786 785 784 783 782 781 780 779 778 776
Wind_Speed
35 37 36 34 33 32 33 33 32 31 30 29 30 30 29 27 25 23 22 23 24 24 26 26 25 25 25 25 25 23 22 21 20 20 21 18 15 14 14 13 12 11 9 8 7 8 9 10 10 10 10 10 10 9 8 7 8 9 9 9 9 8 6 7 7 10 19 20 15 16 15 15 16 16 16 17 16 15 13 12 13 14 16 17 18
37 38 37 35 34 34 34 33 32 32 31 31 30 30 29 28 26 24 24 25 23 21 23 26 24 22 23 23 23 23 22 21 21 21 20 19 17 17 16 14 12 11 10 9 9 9 10 10 10 11 11 11 10 10 9 8 9 11 13 11 11 10 7 8 8 9 14 19 17 16 16 15 15 15 15 16 16 15 14 13 13 14 16 17 18
38 39 38 36 35 35 34 33 32 32 32 32 31 30 28 26 25 24 21 18 16 14 15 20 23 22 21 23 23 23 22 20 20 22 21 20 19 18 16 15 14 12 11 10 10 10 10 11 11 11 11 11 10 10 9 8 8 9 10 10 9 9 7 7 9 9 11 15 16 16 16 17 17 16 15 14 14 14 14 14 15 15 16 16 16
37 38 38 37 36 35 34 32 32 32 32 32 30 28 28 28 23 14 5 1 3 7 8 14 20 24 24 23 24 25 23 20 19 21 21 20 19 18 16 14 13 12 11 11 11 11 11 11 11 10 10 9 9 8 8 7 6 6 7 8 8 8 7 7 8 8 9 12 15 17 17 17 17 16 15 15 14 14 13 14 14 14 15 14 15
36 37 37 37 36 35 34 32 31 31 32 30 28 28 27 17 4 11 9 3 3 9 13 16 18 23 25 23 24 24 22 19 18 19 19 18 17 16 15 13 12 11 11 11 11 11 11 10 9 8 6 6 5 5 5 5 6 6 6 6 7 7 7 7 7 8 10 13 16 17 18 18 17 16 16 16 17 16 15 14 14 14 15 16 15
33 35 35 35 35 35 33 32 31 31 30 27 26 24 16 8 13 12 3 5 8 15 20 17 16 20 23 22 22 22 21 20 19 18 17 16 16 14 13 11 10 10 9 9 9 9 7 7 6 4 4 4 3 4 5 5 6 7 7 6 6 7 8 8 7 8 11 13 14 16 17 17 17 18 17 16 16 16 16 16 16 16 16 16 15
31 33 34 33 35 35 34 32 31 30 27 24 21 17 11 9 9 10 11 11 13 17 19 17 15 18 20 20 21 21 20 18 16 15 14 14 13 12 10 9 8 7 7 6 5 5 4 4 4 4 3 3 4 4 5 6 7 7 7 6 6 7 8 8 8 8 10 12 13 14 16 16 16 17 17 15 14 14 15 16 18 18 17 16 16
31 32 33 33 34 35 34 32 30 28 23 20 17 14 12 11 14 17 16 14 13 15 19 19 17 15 16 17 18 18 18 16 14 14 14 13 11 10 8 7 6 5 4 4 4 4 3 3 2 1 1 2 3 5 5 6 6 6 5 5 6 8 9 8 8 8 9 11 12 14 15 15 15 16 16 16 16 15 14 14 16 18 18 18 18
30 31 32 33 33 33 31 27 25 23 19 17 17 16 16 17 16 17 17 15 13 16 20 21 19 16 14 14 15 16 15 14 14 14 13 11 9 8 6 6 6 5 5 5 5 4 4 3 2 1 1 1 2 3 4 4 5 4 4 5 6 7 8 8 8 8 9 9 11 12 13 14 15 16 16 16 16 15 14 13 14 16 18 20 20
26 28 30 32 32 29 24 20 19 17 16 17 18 19 20 20 18 18 18 16 16 19 20 20 18 16 15 14 14 13 11 11 12 11 10 9 8 8 8 8 7 7 7 6 6 5 5 4 4 3 2 1 1 1 2 2 4 5 5 5 6 7 8 8 8 8 7 8 9 10 11 12 14 15 15 16 15 14 12 12 14 17 19 20 19
25 27 25 27 26 20 15 13 13 15 17 18 19 21 21 20 19 20 20 18 19 20 21 21 19 16 15 14 13 12 11 11 11 9 9 9 9 10 11 10 9 9 8 8 8 8 7 7 7 6 4 2 1 2 3 4 5 6 6 6 6 7 8 8 7 7 6 6 7 9 9 11 14 16 16 17 15 13 12 12 14 18 18 15 13
20 22 18 17 15 11 14 13 12 14 17 20 21 21 21 19 19 19 20 21 22 22 22 21 19 17 15 14 13 12 12 11 10 10 10 11 10 11 12 10 10 10 11 11 11 10 10 9 8 5 3 3 3 3 4 5 5 5 5 5 6 7 8 8 7 7 6 5 6 9 10 11 14 16 17 18 16 14 14 14 14 16 16 13 13
10 14 14 7 11 17 17 15 14 14 19 22 23 22 21 20 20 20 22 23 24 24 22 20 18 17 15 15 14 13 11 11 10 10 11 12 12 12 11 10 11 12 12 12 11 10 10 9 6 3 3 4 4 4 4 3 3 2 2 3 5 6 6 6 6 5 3 4 6 10 12 12 13 15 16 16 16 14 14 15 14 14 15 15 15
15 10 4 7 16 14 10 13 15 19 21 21 22 23 23 22 21 21 22 23 23 23 22 19 17 16 15 15 14 13 12 12 11 10 11 13 13 11 10 11 13 14 13 12 10 9 9 6 4 4 4 5 5 6 6 4 3 3 3 3 4 5 4 4 4 3 4 7 9 11 12 11 12 14 14 13 13 13 13 14 13 13 14 14 13
18 17 14 12 12 11 13 17 19 21 21 21 23 25 24 22 20 20 21 21 22 21 20 19 18 16 16 15 14 13 13 13 11 10 12 15 13 11 12 14 14 14 13 11 10 9 8 5 5 5 5 6 7 7 7 7 7 7 8 8 8 7 7 6 6 6 6 9 10 11 10 10 10 10 10 11 12 12 13 11 10 11 14 14 13
15 18 19 18 16 16 18 19 20 21 22 22 24 25 24 21 20 20 20 21 20 20 20 20 19 18 17 15 14 13 13 13 12 11 14 16 14 13 14 14 13 14 14 12 11 9 7 5 6 6 6 7 8 8 8 7 7 9 11 12 11 10 10 8 7 6 7 9 9 9 9 8 8 8 9 10 12 13 12 10 10 12 14 16 16
16 18 20 21 19 18 19 19 18 20 21 21 22 24 24 23 22 22 21 21 21 21 22 21 19 18 17 15 14 15 15 13 12 14 16 16 15 14 14 13 13 16 15 13 12 10 8 7 7 6 7 8 9 9 9 8 9 10 12 13 13 13 13 11 8 8 8 8 9 10 10 10 9 9 10 11 11 12 12 11 12 13 13 12 11
12 12 13 17 19 19 19 18 17 18 18 18 19 23 25 24 23 23 23 23 23 23 23 22 20 18 17 16 15 16 16 14 14 14 15 15 15 14 13 14 17 18 16 14 12 11 10 9 8 8 9 10 10 10 11 11 12 14 14 15 17 17 16 14 12 12 12 12 12 13 14 14 14 14 14 13 12 13 13 11 11 12 12 10 9
5 4 6 10 15 18 19 18 17 18 16 12 10 16 23 25 24 24 24 23 23 23 23 22 21 19 18 17 17 17 17 15 14 14 14 14 15 15 15 17 20 19 17 15 13 12 12 11 10 10 11 11 11 11 12 13 14 15 15 17 19 19 17 16 14 13 12 13 13 13 14 14 15 15 15 13 13 14 14 12 11 11 12 13 13
5 7 8 10 13 15 16 18 18 17 16 13 9 9 17 23 24 23 23 22 22 22 21 20 19 18 17 17 18 18 17 16 14 14 14 14 14 15 16 20 21 19 17 16 14 14 13 13 13 13 13 13 13 13 14 14 15 15 15 17 18 17 15 15 14 13 12 13 13 14 14 14 14 15 15 14 14 14 14 14 13 13 13 13 14
6 7 9 11 13 15 16 17 16 12 14 18 16 13 14 18 21 22 22 22 22 23 22 19 16 15 16 18 19 18 17 17 16 15 14 13 12 13 15 18 19 18 17 15 14 15 14 14 14 14 14 14 14 14 14 14 15 16 16 16 15 14 14 14 13 12 13 14 15 16 17 16 16 17 17 17 17 16 14 14 14 14 13 13 14
12 11 10 10 12 15 15 16 15 13 13 16 17 15 13 14 16 17 18 21 23 22 21 19 18 18 19 20 20 19 18 16 16 14 13 12 11 11 13 16 18 17 16 16 15 15 15 15 15 14 14 14 13 14 14 15 15 16 15 14 13 13 14 14 13 14 15 17 17 19 20 20 20 20 20 19 18 17 15 14 14 13 13 13 14
13 12 12 12 12 14 15 16 16 16 17 17 16 16 14 14 16 17 18 22 22 20 19 20 21 21 22 21 20 19 17 15 14 14 12 12 12 11 13 16 16 14 15 15 15 15 14 14 14 14 13 13 12 13 14 14 14 14 13 12 13 14 14 13 13 14 17 19 20 21 22 22 22 22 22 22 20 17 16 15 15 13 12 13 16
15 17 17 15 15 16 18 19 20 21 22 20 18 19 18 19 20 20 21 24 24 20 20 22 24 23 23 22 21 19 18 17 15 14 13 14 14 14 15 16 14 13 13 14 15 14 13 13 14 14 13 14 14 14 14 14 14 14 15 15 16 15 14 13 14 15 18 20 21 22 21 21 22 22 22 22 20 18 17 17 16 15 14 14 16
16 18 19 18 18 20 20 21 24 25 25 23 23 23 24 24 22 22 24 27 27 23 23 25 26 25 24 24 23 21 20 20 19 17 16 15 16 15 15 14 13 12 14 15 14 13 13 13 14 13 13 14 16 16 15 15 16 16 17 18 19 17 14 14 15 17 19 20 21 21 20 19 19 20 21 21 21 20 20 20 19 18 16 14 14
15 17 19 19 21 24 25 26 27 26 25 26 26 26 27 27 25 24 25 25 25 25 25 25 25 25 25 24 23 22 22 21 20 18 17 16 16 15 14 14 13 12 13 14 13 12 13 14 14 14 14 15 16 17 17 17 17 18 19 20 21 19 15 15 17 19 19 20 19 19 19 17 16 18 19 21 23 24 23 22 22 22 21 19 19
16 16 18 21 25 29 29 26 25 25 25 26 26 24 24 24 25 25 25 23 22 23 25 24 24 24 23 23 22 22 21 20 18 16 15 15 15 13 12 13 12 11 12 14 13 13 13 13 14 16 17 18 17 17 17 17 18 19 19 20 22 20 16 15 18 19 18 18 18 18 18 18 18 19 20 22 23 24 23 23 23 24 23 23 24
17 16 18 20 24 28 29 25 24 26 26 26 26 23 22 22 23 25 27 26 24 24 24 24 25 25 24 23 22 21 19 17 16 15 13 13 13 11 10 10 10 11 14 14 13 12 13 15 17 18 19 19 18 17 16 17 18 18 18 18 20 20 15 13 16 18 17 16 17 18 18 19 21 21 22 23 24 25 24 24 25 25 24 24 24
17 19 21 21 19 20 23 26 28 30 29 27 27 24 22 22 23 24 26 28 28 27 26 25 26 26 26 26 24 22 20 18 16 14 13 12 11 10 10 11 12 13 14 14 14 15 17 19 20 18 18 18 17 16 16 15 15 15 14 14 16 17 15 12 14 16 16 15 16 17 17 18 20 21 21 22 24 24 24 25 25 25 26 26 24
19 20 22 23 22 21 22 26 29 31 30 28 27 23 20 21 23 23 24 25 26 27 27 28 29 29 27 25 22 21 21 19 16 14 12 10 9 9 11 14 15 15 16 17 19 21 22 22 20 17 16 16 15 15 15 13 11 11 11 10 11 12 13 12 12 13 13 12 13 14 15 16 18 19 20 21 22 22 23 23 24 24 24 23 22
19 19 20 22 25 27 27 27 28 29 29 29 29 26 22 19 19 21 22 22 23 25 26 28 29 27 24 23 21 20 20 18 16 13 11 9 10 12 14 16 17 19 20 21 23 23 23 21 20 17 16 15 14 14 14 11 9 8 7 7 7 8 10 11 9 8 8 9 11 11 12 14 15 16 17 18 19 20 20 20 21 21 21 20 19
18 18 19 21 22 25 27 27 27 28 28 28 28 28 26 23 19 17 18 20 22 24 26 27 26 22 21 23 24 22 20 19 18 16 14 13 15 17 18 19 21 22 21 21 23 23 21 20 18 16 15 14 14 13 11 10 9 7 6 5 5 5 7 8 8 7 7 9 10 10 11 11 13 13 14 15 16 17 17 18 18 18 18 18 18
18 19 22 22 21 23 25 26 28 29 30 29 29 30 29 27 25 23 20 20 21 24 25 25 23 21 21 22 22 21 22 22 22 21 20 19 20 22 22 22 22 20 18 20 23 22 20 19 18 16 15 14 13 11 9 8 8 7 6 5 3 2 4 5 6 7 8 8 8 9 9 10 10 11 11 13 14 13 13 14 14 14 14 14 15
19 22 24 26 25 24 24 25 26 27 28 30 31 31 30 30 31 30 28 26 26 26 26 24 22 22 22 21 20 22 24 25 24 23 23 23 23 23 23 22 19 16 16 20 23 21 19 18 17 15 14 13 11 10 9 8 7 7 7 6 4 2 2 5 6 7 6 6 7 7 8 9 10 10 9 10 12 12 11 11 12 12 12 12 13
19 20 23 27 29 28 26 25 25 25 26 28 31 33 33 32 31 31 30 29 29 28 27 25 23 21 20 21 21 23 24 24 23 22 22 22 21 21 22 23 22 20 20 21 21 19 18 16 15 13 11 10 9 8 7 7 8 8 9 8 8 7 7 8 8 6 5 5 5 6 6 7 9 10 10 10 11 11 11 11 11 11 11 11 12
20 19 21 24 28 30 29 27 26 26 27 28 30 33 33 32 31 30 30 31 30 28 26 24 23 21 21 22 22 22 21 21 21 21 20 19 19 21 23 24 23 22 21 20 18 17 15 14 13 12 10 9 8 8 7 7 7 7 7 7 7 7 6 6 6 5 4 4 4 4 5 7 9 9 10 10 10 10 10 10 11 11 11 11 12
20 20 20 21 23 26 27 26 25 27 28 29 30 30 31 31 31 31 31 30 30 28 27 26 26 25 24 23 23 22 22 22 21 20 18 18 19 21 23 24 23 22 21 18 16 15 14 13 12 10 9 9 9 8 7 6 4 4 5 4 4 5 5 5 6 6 6 5 5 5 7 8 9 10 10 10 10 10 10 11 12 12 13 13 13
19 20 20 21 22 24 24 24 25 26 27 27 28 28 30 30 31 31 30 29 29 29 28 28 29 28 26 24 23 24 25 24 22 20 18 19 20 20 21 22 22 20 18 15 14 14 13 11 9 8 8 9 8 6 5 3 2 2 3 4 4 4 5 5 6 8 8 8 8 8 9 11 11 12 12 12 12 12 12 13 14 14 15 15 15
19 20 22 24 26 26 26 26 27 27 26 26 25 26 28 30 30 30 30 29 28 28 27 27 27 27 26 24 23 24 24 24 22 20 18 18 18 19 20 21 20 18 16 14 13 13 12 10 8 8 8 8 6 4 2 1 2 2 3 4 5 6 6 7 8 9 9 10 11 12 13 14 15 15 15 15 16 16 15 16 17 17 17 17 17
24 26 27 28 27 27 27 27 27 26 28 28 26 25 27 30 30 30 30 29 27 27 27 27 26 26 24 23 22 23 23 23 22 20 19 18 18 19 19 19 17 15 14 13 13 13 12 10 9 8 7 6 3 1 1 2 3 4 5 6 7 7 7 7 7 8 9 10 11 13 14 15 16 16 17 18 19 19 19 19 19 19 19 18 19
29 30 30 29 27 26 27 27 26 27 29 29 26 24 26 29 31 30 29 28 26 26 27 27 27 25 22 20 20 22 22 22 21 20 19 19 19 18 17 16 14 13 12 12 13 13 12 10 8 7 5 3 0 1 2 3 4 4 5 5 5 4 4 4 6 7 8 9 10 11 12 13 14 14 16 16 17 18 18 19 19 19 19 19 19
31 29 27 27 28 28 28 28 28 29 29 28 25 24 25 28 30 29 27 26 26 25 26 25 24 22 20 19 20 21 21 20 19 18 18 18 18 17 16 14 12 10 10 11 12 11 10 9 7 5 2 1 2 2 2 2 3 3 4 4 4 4 4 5 6 8 9 11 12 13 14 15 16 17 18 19 19 18 18 18 19 19 19 19 18
32 31 28 27 29 30 31 30 31 31 30 27 27 26 26 26 27 27 26 25 25 25 24 22 20 20 21 22 22 22 20 19 19 19 18 17 16 15 14 12 10 9 9 10 10 9 7 6 4 2 0 1 0 1 2 3 4 4 5 4 3 3 5 7 9 10 12 14 15 17 18 20 21 22 22 22 21 21 20 19 19 19 19 19 18
31 30 28 27 29 31 33 32 32 33 32 30 29 27 26 25 25 25 25 25 24 24 23 21 21 22 24 24 23 22 20 20 20 20 19 17 15 14 13 12 10 10 10 10 9 6 3 1 1 2 2 3 3 4 4 4 4 4 3 2 3 5 7 10 12 14 16 17 19 20 22 23 23 23 23 21 19 19 18 18 18 18 18 18 18
26 25 27 28 30 32 33 32 32 33 32 31 28 26 24 24 25 25 24 24 24 24 23 23 24 26 26 25 24 22 20 20 21 21 19 15 12 11 11 11 9 8 8 8 6 3 1 1 1 4 6 5 5 4 4 3 2 1 2 4 6 8 10 13 14 16 18 20 21 22 23 22 21 20 18 17 16 16 16 17 17 17 17 17 17
23 25 29 32 32 32 32 32 32 32 30 30 29 27 24 24 25 24 24 24 25 24 24 25 27 28 26 24 23 21 20 21 20 18 15 12 10 10 11 11 8 7 6 5 2 1 2 2 4 6 7 6 4 3 2 0 1 3 5 7 9 11 13 15 16 19 20 21 22 22 21 19 17 15 14 14 15 15 16 16 16 17 17 17 17
24 26 28 30 30 32 32 32 31 31 31 32 31 28 25 24 24 24 24 25 25 25 25 26 27 27 25 24 22 21 20 19 17 14 13 12 12 12 11 10 8 6 5 4 3 4 4 5 6 6 6 5 4 3 2 2 3 5 7 10 12 13 15 17 19 21 22 22 22 21 18 15 13 12 13 14 14 14 15 17 17 17 17 16 16
23 24 26 29 31 32 33 32 30 30 31 32 31 28 27 27 26 24 24 25 26 25 25 25 26 26 25 24 22 19 17 16 14 14 12 11 11 10 10 9 7 6 5 5 4 4 5 5 5 5 5 5 4 3 2 3 5 8 10 12 14 15 17 19 21 23 23 23 20 17 13 11 11 12 12 13 13 14 15 16 16 16 15 14 15
29 28 28 31 33 33 34 34 32 30 30 31 30 28 27 26 26 25 25 25 25 26 25 24 24 24 25 24 21 17 14 12 13 13 11 9 8 9 9 9 8 6 4 3 2 2 3 4 5 4 4 4 3 2 3 5 8 10 12 14 16 18 19 21 23 24 23 21 17 13 10 10 10 11 12 12 13 14 15 14 14 15 15 15 15
37 36 34 35 36 36 35 35 33 31 30 29 29 27 25 23 23 24 24 25 25 25 25 23 22 22 22 21 19 15 12 11 12 12 10 10 10 10 9 8 7 5 4 3 2 3 3 4 4 4 4 3 1 3 5 8 10 12 14 16 18 19 21 23 23 23 21 16 12 10 9 10 11 12 12 12 13 14 14 13 13 14 15 15 15
39 39 36 33 33 34 34 33 32 30 29 28 26 25 24 23 23 25 26 26 25 25 23 22 21 20 19 18 16 14 14 14 13 12 11 10 10 9 8 6 6 5 4 4 4 4 4 4 4 3 2 1 3 6 8 10 12 14 15 17 19 20 22 23 22 20 17 13 10 9 9 10 12 12 12 12 13 13 13 13 14 15 15 15 15
Wind_Direction
194 198 206 209 210 211 214 216 218 220 222 226 227 228 228 229 230 230 234 239 240 241 240 236 232 232 233 232 230 231 233 232 232 232 231 230 227 222 218 215 216 227 239 246 247 249 250 253 260 267 273 279 279 277 277 279 276 274 277 281 284 289 281 256 241 269 289 297 305 311 316 315 312 318 321 318 320 320 308 295 291 291 292 295 298
197 202 207 208 209 213 215 216 217 218 221 224 226 226 227 229 229 229 234 240 243 243 236 227 225 226 225 223 224 225 228 229 230 231 230 228 225 223 221 222 226 233 239 241 239 238 241 248 256 265 274 280 279 275 273 278 283 283 281 278 279 283 279 265 254 259 285 300 311 319 325 327 324 329 334 330 328 326 317 309 306 302 301 303 304
201 205 209 209 210 213 215 216 216 218 220 222 224 224 224 227 227 230 236 240 238 232 229 230 227 221 217 216 216 217 221 225 228 230 230 227 223 221 223 227 231 233 235 238 240 244 250 257 263 268 275 281 282 277 275 281 286 286 287 284 279 278 278 268 262 261 279 297 311 320 326 329 328 333 337 334 332 332 327 322 319 315 313 313 311
204 206 208 210 212 212 213 215 215 218 221 222 224 224 227 230 230 232 243 283 212 201 229 260 242 219 212 213 211 213 217 220 224 227 227 223 219 219 221 225 228 230 235 242 248 256 262 266 271 276 279 283 285 281 275 275 276 279 286 287 281 281 281 268 265 268 275 291 305 314 322 326 328 332 337 335 334 333 331 330 328 327 329 330 325
207 208 209 210 213 213 213 214 214 217 220 222 224 227 229 223 149 58 47 21 285 223 227 260 252 220 211 209 206 209 212 212 213 213 213 212 211 214 218 221 228 237 247 255 262 268 271 272 275 279 283 287 286 279 274 272 277 283 287 291 290 289 287 279 274 276 279 288 300 310 321 327 328 332 338 337 333 331 332 334 334 337 340 338 333
212 208 209 211 213 214 214 213 214 217 219 220 223 223 214 153 90 58 24 226 230 222 218 234 240 217 207 202 198 199 201 200 198 194 195 200 204 211 219 226 237 247 255 263 269 273 273 272 269 260 265 282 282 281 291 298 298 293 288 293 298 296 296 295 290 289 293 297 301 309 322 330 331 333 339 339 332 331 334 335 337 343 345 342 342
219 210 208 210 213 215 215 214 215 218 218 219 221 213 187 163 188 224 228 204 202 207 204 211 219 209 199 194 192 192 190 188 188 191 196 202 206 214 225 235 244 249 254 256 251 247 247 242 239 238 250 276 287 297 307 307 304 300 293 292 298 300 303 307 306 307 310 310 310 315 324 329 330 333 342 347 343 340 340 335 333 339 347 348 347
220 213 208 210 213 214 215 215 215 217 218 217 215 200 184 194 210 216 216 209 206 203 197 199 203 194 185 185 188 191 192 194 200 207 207 207 212 220 226 230 232 228 219 205 196 198 206 209 213 238 292 310 302 303 308 305 303 308 307 305 304 301 303 309 314 317 318 315 314 318 323 327 333 341 348 352 348 343 342 334 326 333 344 344 343
223 217 209 210 214 214 214 213 212 212 210 206 202 193 193 205 212 212 212 208 202 198 193 190 190 186 182 185 190 195 201 204 206 206 204 203 207 206 198 196 191 177 165 162 164 162 152 144 133 96 36 348 300 289 294 303 310 320 325 322 318 310 306 309 310 312 316 314 313 321 326 329 338 346 346 346 343 336 337 335 326 333 341 337 340
231 227 214 210 214 213 207 200 197 196 189 186 189 190 196 205 208 203 196 187 185 189 190 187 190 195 194 191 192 193 195 196 194 195 198 194 187 175 165 164 160 151 149 148 146 141 133 127 118 105 93 74 12 302 298 305 308 308 307 309 317 316 309 303 299 301 306 307 313 325 328 328 336 342 339 338 337 333 335 337 332 336 340 337 341
243 242 226 215 216 209 182 166 166 168 173 182 186 189 194 197 194 190 185 181 182 190 197 196 194 197 196 191 188 184 182 185 183 179 176 171 167 163 156 151 145 142 141 139 139 140 133 122 112 105 93 67 10 312 294 290 290 292 290 288 298 306 302 296 295 296 292 297 318 330 328 325 334 340 339 336 336 332 331 331 331 334 339 338 336
255 258 247 227 209 164 131 136 148 161 186 200 196 191 192 191 189 190 189 188 189 193 197 196 190 190 190 187 187 187 184 180 172 164 161 159 161 161 153 146 142 142 139 136 137 136 128 118 109 97 70 19 330 303 292 288 289 294 293 283 285 297 299 295 296 298 296 307 329 337 335 330 332 338 340 336 330 323 321 324 330 334 336 333 322
242 266 269 231 142 120 123 141 161 191 207 205 198 196 198 199 200 199 194 190 189 189 190 188 185 186 186 185 189 188 181 173 167 163 159 156 157 157 151 145 145 143 138 133 129 127 125 120 106 74 33 13 356 348 346 331 316 317 309 299 309 321 321 312 307 302 317 350 345 339 339 335 332 337 342 339 334 330 327 328 334 341 340 335 329
186 197 212 120 117 124 151 169 188 211 206 190 191 202 207 208 206 200 193 188 187 187 186 184 182 182 185 188 186 179 172 169 169 169 164 157 154 152 149 144 142 138 131 125 122 123 125 118 89 59 37 28 26 23 26 43 57 56 49 25 15 22 25 6 7 34 36 11 349 340 342 337 332 338 346 352 354 352 345 339 342 349 346 341 339
181 164 146 138 149 176 200 200 204 210 197 182 190 201 204 205 199 191 189 189 188 189 187 185 183 181 183 184 179 173 171 169 168 166 163 160 154 146 143 140 137 134 131 129 128 127 125 107 73 60 48 40 37 35 42 60 74 77 73 65 60 64 70 65 62 60 24 357 344 342 346 342 337 342 347 352 354 352 349 347 348 349 344 341 342
178 168 163 171 183 188 195 199 201 202 194 183 183 188 192 196 194 189 189 188 187 188 187 184 180 176 175 177 175 172 170 166 163 159 159 162 158 146 141 139 140 141 138 136 134 126 116 97 78 68 56 49 43 40 48 65 84 88 79 71 68 69 69 70 64 38 5 353 350 350 351 348 346 347 345 342 343 343 341 339 342 346 346 347 347
182 178 169 169 176 182 186 189 195 201 195 181 176 181 187 193 195 194 191 187 186 186 182 177 175 171 169 170 172 170 165 161 159 157 160 163 159 151 148 145 147 145 137 132 129 119 105 92 84 76 69 65 60 57 64 78 90 88 78 70 68 65 62 60 56 46 34 28 27 25 24 24 23 20 10 3 360 355 349 347 352 355 356 357 348
196 188 170 167 176 184 188 192 201 207 198 184 181 183 186 192 197 198 194 187 182 179 175 172 173 171 168 168 169 166 159 155 155 155 157 159 157 158 159 152 148 145 136 130 126 115 104 95 87 85 84 81 78 75 74 79 82 80 76 71 65 59 55 54 59 63 63 60 58 55 50 44 40 37 32 27 23 15 7 3 0 358 359 359 342
184 143 131 155 173 183 191 199 207 208 201 196 192 186 186 192 195 195 193 186 177 172 169 166 167 169 168 165 161 155 148 146 148 148 147 150 154 158 160 153 147 142 136 129 121 111 105 100 95 95 94 90 87 83 78 75 74 71 69 67 62 56 51 51 55 60 60 58 56 53 48 41 35 34 34 34 33 28 22 17 7 1 1 355 348
116 108 119 138 157 174 191 201 207 206 199 202 215 205 192 192 192 189 186 180 168 159 155 153 156 161 162 154 147 143 139 135 135 138 140 144 150 156 158 154 147 141 135 128 118 111 107 105 103 101 97 93 90 85 77 70 66 63 59 58 57 52 47 45 47 49 49 47 45 41 38 33 30 31 32 34 34 31 28 24 17 10 3 354 352
178 181 169 158 165 176 188 195 196 191 191 200 211 218 209 198 190 183 175 163 147 139 140 145 148 148 145 140 136 133 131 129 127 131 135 138 143 149 153 152 149 142 132 123 117 115 111 110 110 106 100 95 88 81 74 67 64 63 61 61 60 50 39 38 39 42 46 47 44 41 37 33 32 31 30 29 27 25 25 23 19 16 9 358 349
210 210 192 175 174 177 180 186 188 187 196 205 203 199 198 192 179 167 154 140 133 133 139 142 141 136 132 132 131 127 126 125 124 126 130 132 136 142 144 149 152 145 130 121 119 119 117 117 116 110 104 96 85 78 76 72 69 69 68 64 57 44 35 37 42 45 48 48 46 43 38 34 32 31 29 26 23 21 21 20 18 20 19 15 10
192 186 179 175 168 165 173 184 188 190 199 203 188 168 165 170 164 149 133 130 135 142 144 139 135 133 129 127 126 123 121 120 120 121 123 125 129 134 136 143 150 144 130 124 124 124 125 125 121 115 106 96 90 88 86 81 77 74 68 59 50 42 39 42 47 48 48 48 46 43 38 34 31 31 30 28 25 26 27 25 22 25 29 36 44
173 168 170 168 159 156 166 178 183 186 190 187 167 151 158 171 166 152 145 145 145 145 143 140 137 133 128 124 122 120 118 117 116 117 121 122 122 123 125 131 137 132 122 122 125 125 126 126 124 120 108 95 95 99 95 89 83 74 62 53 47 46 48 51 52 51 50 48 44 41 38 35 33 33 33 33 34 34 35 34 33 35 40 48 51
169 167 167 163 155 155 163 176 184 183 176 166 155 156 167 169 159 155 159 158 150 144 143 143 139 135 131 127 124 123 122 119 116 117 120 122 121 121 121 123 126 125 121 122 124 121 118 120 122 120 109 99 99 100 96 88 79 67 56 49 45 45 51 56 57 58 55 49 44 41 39 36 35 37 39 38 36 33 31 32 32 32 31 31 31
166 166 164 156 151 154 164 176 182 176 164 158 159 169 174 163 153 159 165 160 152 146 145 144 141 138 136 131 127 126 126 123 122 122 124 127 127 126 124 122 122 124 125 125 124 119 116 117 113 109 109 109 107 102 94 83 71 60 52 47 44 46 54 60 61 61 58 52 47 44 40 37 38 41 41 39 36 34 32 31 32 30 26 21 18
168 163 158 153 153 158 164 170 168 160 154 153 157 169 173 161 155 159 161 157 152 146 144 147 146 142 137 134 131 131 130 129 130 131 132 134 133 131 129 126 124 126 128 129 128 123 121 119 111 106 108 111 109 101 89 75 65 59 55 50 46 47 56 65 62 60 58 55 51 46 42 40 39 38 39 39 39 37 35 34 34 32 30 29 26
168 163 156 153 157 161 161 158 152 146 146 146 148 156 165 164 162 163 162 160 156 152 151 153 151 147 143 139 137 135 136 137 137 136 136 138 139 138 135 130 129 134 136 134 131 127 124 121 116 111 108 105 100 92 80 70 65 62 59 57 52 49 55 65 63 60 60 57 50 45 42 40 38 37 40 42 41 38 35 35 34 32 31 33 31
163 160 156 154 156 157 155 154 151 147 146 144 141 144 153 161 164 164 164 164 162 160 158 156 155 153 150 147 147 144 140 140 141 139 139 141 142 141 133 129 132 135 136 135 132 127 122 117 114 111 105 98 93 86 79 72 69 67 65 63 57 53 56 63 64 61 59 55 50 48 44 41 38 40 42 41 39 37 34 33 32 31 30 32 29
159 158 156 153 152 151 150 150 149 149 148 145 140 138 143 155 161 162 162 164 165 166 164 162 162 161 154 151 153 150 143 140 138 138 140 143 144 140 133 131 131 129 131 133 129 122 117 112 108 105 100 95 90 87 82 76 72 74 77 72 62 58 62 67 68 64 59 55 53 50 47 45 44 44 43 39 36 35 33 32 33 32 31 31 26
161 159 156 154 153 153 151 150 148 148 148 146 143 139 134 138 149 158 160 162 165 168 168 166 165 164 157 150 145 140 135 133 128 127 129 129 130 133 135 135 132 131 134 133 123 115 113 110 104 100 96 94 95 94 88 80 75 84 96 88 65 54 62 72 79 77 66 60 56 52 53 55 52 48 44 38 33 32 31 32 33 31 31 30 24
165 160 158 157 156 153 152 151 149 147 144 142 141 138 131 123 120 131 149 161 166 167 165 162 160 159 156 150 143 134 129 124 118 115 113 115 119 125 130 134 133 133 136 130 117 111 110 109 105 101 96 98 104 105 95 82 74 75 87 91 73 52 59 76 89 85 66 59 62 62 61 58 51 46 43 37 33 32 31 29 29 28 26 23 18
172 164 160 158 155 154 153 152 152 149 146 143 140 138 134 127 116 109 116 132 144 150 152 153 151 148 145 142 138 132 127 123 117 111 109 114 119 122 124 128 131 134 134 124 114 111 110 109 108 106 103 104 108 107 97 86 78 70 67 75 80 48 48 73 86 76 63 66 75 72 62 51 45 45 46 40 35 34 31 27 25 22 19 15 11
178 170 165 160 155 154 153 153 153 150 147 145 141 137 135 133 126 119 114 114 118 124 131 136 140 139 137 134 131 130 129 125 119 115 114 117 120 122 122 121 120 123 124 118 115 115 116 114 114 113 110 110 109 103 94 83 68 54 48 53 58 52 64 80 82 75 75 85 85 71 57 49 43 42 40 32 26 24 23 19 13 9 8 6 1
179 172 169 163 157 154 154 154 152 147 144 142 139 136 134 132 130 128 125 121 119 120 123 129 133 135 135 133 131 132 131 127 123 122 121 121 124 126 122 115 111 113 116 117 119 122 123 124 123 119 116 117 118 111 99 82 66 58 60 67 75 82 89 87 79 76 83 85 70 54 44 35 29 25 18 9 5 4 3 1 357 354 354 352 349
177 173 170 164 158 154 153 153 150 146 143 139 135 134 134 133 131 130 129 128 127 126 126 129 130 130 131 130 131 133 134 133 131 128 124 124 128 127 121 117 117 120 122 124 126 127 127 130 128 123 121 127 127 118 104 92 83 78 79 82 81 78 76 69 58 53 58 56 41 27 17 7 3 1 356 350 348 347 345 345 343 339 337 335 333
176 174 171 164 157 151 148 147 146 143 139 136 134 133 133 132 132 131 130 129 129 129 129 130 129 128 128 127 127 129 131 134 135 130 124 124 128 126 123 124 127 130 130 130 130 129 130 132 132 130 128 124 120 115 110 105 99 87 79 71 60 48 39 31 25 20 15 8 355 345 342 340 339 339 337 334 333 331 331 332 328 321 319 317 314
176 173 170 163 155 148 143 142 141 138 135 134 135 135 133 132 131 131 130 130 130 131 132 133 133 132 130 127 127 128 129 133 135 134 132 132 131 130 132 136 137 136 133 132 131 131 130 128 129 131 129 124 123 128 128 115 93 69 53 37 28 23 14 8 6 360 352 346 338 331 327 324 324 324 324 322 321 319 318 318 315 309 306 305 302
175 174 172 168 160 153 149 145 142 138 136 136 138 138 135 133 132 131 131 132 132 133 135 136 137 135 133 130 131 134 136 138 139 140 141 143 141 139 141 143 140 134 128 125 127 129 127 126 128 134 138 141 146 147 130 56 20 16 10 3 1 359 355 354 351 345 338 331 325 322 320 319 319 318 316 314 313 310 308 308 307 304 301 298 299
178 178 176 171 164 157 152 147 143 142 141 141 143 144 140 136 135 134 134 134 135 137 139 140 140 139 136 135 138 140 140 140 140 138 137 141 146 148 147 143 138 133 129 127 128 131 133 138 143 145 149 154 157 125 31 8 1 360 355 353 354 352 348 344 337 331 327 323 320 320 319 319 319 319 316 315 314 313 310 308 308 307 304 301 302
181 178 175 171 164 156 149 146 145 146 146 146 148 148 143 138 136 136 136 136 138 140 141 142 143 144 143 143 145 145 142 142 142 139 134 133 139 145 146 142 138 138 139 139 140 142 147 152 153 152 152 156 119 16 17 7 1 356 349 343 336 323 312 312 318 322 326 329 329 330 328 326 326 326 324 323 324 322 319 316 315 313 310 307 306
180 175 169 166 161 153 148 147 149 149 148 148 147 145 142 139 138 137 138 139 141 143 144 146 149 150 149 150 152 150 147 144 144 142 137 133 132 135 140 142 139 137 141 147 148 149 154 159 161 164 163 11 356 358 2 350 334 318 303 288 278 281 300 323 336 339 341 342 341 339 337 334 332 330 328 327 326 325 323 321 319 315 312 310 309
178 176 169 163 158 153 150 152 152 149 146 145 144 144 144 142 140 140 141 142 144 148 148 149 152 154 153 154 156 155 152 150 149 146 141 136 134 133 136 140 140 138 142 150 152 151 155 162 171 182 158 44 327 285 287 284 277 272 271 274 290 325 343 350 352 351 349 348 344 341 337 334 331 329 327 326 325 323 322 320 318 317 316 315 315
176 174 166 157 152 151 153 154 151 146 146 146 145 147 149 146 142 143 144 145 147 149 147 145 147 151 153 154 154 153 150 150 152 151 147 144 143 138 133 132 134 139 146 152 155 156 163 173 161 162 173 193 231 257 266 267 269 272 286 315 348 2 5 4 2 358 354 349 345 340 337 335 332 331 329 329 328 327 327 327 327 326 325 326 326
172 160 152 149 147 149 152 151 145 143 145 145 143 144 146 144 143 145 147 148 149 148 144 142 145 149 152 153 152 149 146 147 151 153 152 148 146 145 144 142 142 146 152 154 151 149 312 319 187 184 196 210 228 240 249 258 274 317 357 7 12 13 11 6 360 354 350 347 344 342 340 338 336 336 336 339 343 342 341 341 340 338 337 335 333
162 147 146 149 148 146 146 143 140 141 141 139 138 140 142 141 142 145 148 150 150 146 143 143 145 148 150 149 149 148 147 147 149 151 151 149 148 151 156 161 166 170 173 173 172 271 291 249 211 207 212 214 214 210 208 180 56 40 28 22 16 10 4 358 353 351 350 349 348 347 345 342 342 345 349 354 356 353 350 348 346 344 341 338 335
151 144 144 143 140 137 136 135 135 137 136 135 136 137 137 138 141 143 145 149 150 149 147 146 147 149 149 149 149 151 151 150 150 147 147 152 155 156 162 171 176 178 182 193 225 263 264 242 226 221 215 206 195 178 146 91 51 31 17 9 3 359 357 356 355 354 354 352 351 349 347 346 350 355 359 360 358 353 350 349 347 344 344 344 342
128 128 130 129 126 125 126 127 127 129 129 129 131 133 135 139 141 142 144 147 149 150 151 151 151 153 153 152 152 151 148 148 149 147 148 157 166 173 183 188 181 172 181 197 221 254 255 231 213 204 192 184 175 149 100 47 20 10 3 360 360 0 0 360 359 357 355 353 351 350 351 354 359 2 1 360 355 347 344 345 345 346 349 351 347
109 107 109 112 113 114 117 119 120 121 123 126 129 133 138 143 144 145 147 149 148 146 147 148 151 156 158 157 156 152 146 148 153 153 154 161 168 174 181 182 174 171 183 188 189 211 208 186 178 176 172 170 160 96 35 13 6 4 4 5 6 5 3 2 360 358 356 354 352 354 359 3 5 5 2 358 351 345 344 346 348 350 353 352 347
102 100 98 100 104 108 112 115 117 121 127 131 134 138 142 147 150 152 153 152 149 146 144 143 144 149 154 157 156 149 142 149 158 159 154 152 148 146 150 157 160 166 174 168 158 169 173 169 170 175 169 156 89 22 10 6 7 8 9 8 7 4 1 0 359 358 358 357 357 360 5 9 9 5 359 354 350 348 347 350 350 349 349 349 347
99 100 100 101 105 111 115 116 118 122 128 133 137 141 146 152 156 157 155 153 150 148 146 143 141 141 142 145 144 137 132 138 147 148 143 140 139 137 139 147 157 164 167 164 164 168 172 175 177 170 149 55 13 8 7 7 9 10 9 6 3 0 358 358 358 359 2 4 3 2 7 10 9 3 354 349 347 346 347 351 351 348 346 346 346